English version Home page |
Updated on June 11, 2016 |
|
軌道要素Epoch 2013 Dec. 14.0 TT = JDT 2456640.5 T 2013 Dec. 2.22005 TT MPCW q 7.6025245 (2000.0) P Q z -0.0002149 Peri. 191.93492 -0.03047733 +0.52640967 +/-0.0000011 Node 277.97149 +0.97306921 +0.20995053 e 1.0016341 Incl. 120.91002 +0.22848951 -0.82390147 From 288 observations 2012 Jan. 2-2015 Mar. 9, mean residual 0".5.
|
光度変化m1 = 5.0 + 5 logΔ + 10.0 log r
|
軌道要素はM.P.E.C. 2015-G03に掲載されたものです。
|